Change the Weather History Date:

Monday, October 8, 2012

  Actual Average Record
Temperature  
Mean Temperature 70 °F -  
Max Temperature 77 °F 69 °F 78 °F (2001)
Min Temperature 62 °F 52 °F 51 °F (1999)
Cooling Degree Days 6    
Growing Degree Days 20 (Base 50)    
Moisture  
Dew Point 64 °F    
Average Humidity 81    
Maximum Humidity 94    
Minimum Humidity 62    
Precipitation  
Precipitation 0.00 in 0.16 in - ()
Sea Level Pressure  
Sea Level Pressure 29.96 in    
Wind  
Wind Speed 5 mph ()    
Max Wind Speed 13 mph    
Max Gust Speed -    
Visibility 8.0 miles    
Events      
Averages and records for this station are not official NWS values.
T = Trace of Precipitation, MM = Missing Value Source: Averaged Metar Reports

Daily Weather History Graph

Daily Weather History Graph

Search for Another Location

Airport or City:

Trip Planner

Search our weather history database for the weather conditions in past years. The results will help you decide how hot, cold, wet, or windy it might be!

Date:

Astronomy

Oct. 08, 2012 Rise Set
Actual Time 7:14 AM CEST 6:39 PM CEST
Civil Twilight 6:47 AM CEST 7:07 PM CEST
Nautical Twilight 6:14 AM CEST 7:39 PM CEST
Astronomical Twilight 5:42 AM CEST 8:11 PM CEST
Moon No Moon Rise 2:23 PM CEST (10/8)
Length of Visible Light 12h 20m
Length of Day
11h 25m
Waning Gibbous, 49% of the Moon is Illuminated
Oct 8
Waning Gibbous
Oct 15
New
Oct 22
First Quarter
Oct 29
Full
Nov 7
Last Quarter

Hourly Weather History & Observations

Time (CEST) Temp. Dew Point Humidity Pressure Visibility Wind Dir Wind Speed Gust Speed Precip Events Conditions
12:55 AM 68.0 °F 66.2 °F 94% 29.98 in 6.2 mi ESE 3.5 mph - N/A   Partly Cloudy
1:55 AM 68.0 °F 66.2 °F 94% 29.98 in 6.2 mi SSE 2.3 mph - N/A   Scattered Clouds
2:00 AM 69 °F 66 °F 86% 29.99 in 6 mi SSE 2.3 mph - -   Partly Cloudy
3:55 AM 68.0 °F 64.4 °F 88% 29.98 in 6.2 mi ENE 5.8 mph - N/A   Scattered Clouds
5:00 AM 67 °F 64 °F 86% 29.99 in 6 mi ENE 5.8 mph - -   Partly Cloudy
5:55 AM 66.2 °F 62.6 °F 88% 29.95 in 6.2 mi NE 4.6 mph - N/A   Partly Cloudy
6:55 AM 66.2 °F 62.6 °F 88% 29.95 in 6.2 mi East 4.6 mph - N/A   Partly Cloudy
8:00 AM 67 °F 62 °F 80% 29.96 in 9 mi East 6.9 mph - -   Clear
8:55 AM 69.8 °F 64.4 °F 83% 29.95 in - NE 4.6 mph - N/A   Clear
9:55 AM 73.4 °F 64.4 °F 73% 29.98 in - East 6.9 mph - N/A   Clear
10:55 AM 75.2 °F 64.4 °F 69% 29.98 in 6.2 mi ESE 6.9 mph - N/A   Partly Cloudy
11:00 AM 75 °F 64 °F 62% 29.99 in 16 mi ESE 6.9 mph - -   Scattered Clouds
11:55 AM 75.2 °F 64.4 °F 69% 29.98 in 6.2 mi SSE 4.6 mph - N/A   Scattered Clouds
12:55 PM 75.2 °F 66.2 °F 73% 29.98 in 6.2 mi SSE 5.8 mph - N/A   Scattered Clouds
1:55 PM 77.0 °F 66.2 °F 69% 29.98 in 6.2 mi South 10.4 mph - N/A   Partly Cloudy
2:00 PM 77 °F 67 °F 64% 29.97 in 16 mi South 10.4 mph - -   Partly Cloudy
2:55 PM 75.2 °F 68.0 °F 78% 29.95 in 6.2 mi South 12.7 mph - N/A   Partly Cloudy
3:55 PM 75.2 °F 68.0 °F 78% 29.95 in 6.2 mi South 10.4 mph - N/A   Partly Cloudy
4:55 PM 75.2 °F 68.0 °F 78% 29.95 in - South 9.2 mph - N/A   Clear
5:00 PM 74 °F 68 °F 76% 29.95 in 16 mi South 9.2 mph - -  
5:55 PM 73.4 °F 66.2 °F 78% 29.92 in - South 4.6 mph - N/A   Clear
6:55 PM 69.8 °F 64.4 °F 83% 29.92 in - South 3.5 mph - N/A   Clear
8:00 PM 68 °F 64 °F 83% 29.96 in 7 mi South 2.3 mph - -   Clear
8:55 PM 64.4 °F 62.6 °F 94% 29.95 in - NE 2.3 mph - N/A   Clear
9:55 PM 64.4 °F 60.8 °F 88% 29.95 in - NNE 3.5 mph - N/A   Clear
10:55 PM 64.4 °F 60.8 °F 88% 29.95 in - NNE 4.6 mph - N/A   Clear
11:00 PM 64 °F 61 °F 85% 29.96 in 7 mi NNE 4.6 mph - -  
11:55 PM 62.6 °F 59.0 °F 88% 29.95 in - NNE 4.6 mph - N/A   Clear